Natchitoches, LA

2:50 PM CST on November 13, 2019 (GMT -0600)
Natchitoches Regional

Weather History for KIER - September, 2019

Change the Weather History Date:

Friday, September 6, 2019

  Actual Average Record
Temperature  
Mean Temperature 86 °F -  
Max Temperature 103 °F 90 °F 104 °F (2012)
Min Temperature 69 °F 67 °F 51 °F (2011)
Cooling Degree Days 20    
Growing Degree Days 36 (Base 50)    
Moisture  
Dew Point 70 °F    
Average Humidity 66    
Maximum Humidity 97    
Minimum Humidity 33    
Precipitation  
Precipitation 0.00 in - - ()
Sea Level Pressure  
Sea Level Pressure 30.01 in    
Wind  
Wind Speed 1 mph (NNW)    
Max Wind Speed 8 mph    
Max Gust Speed -    
Visibility 9 miles    
Events      
Averages and records for this station are not official NWS values.
T = Trace of Precipitation, MM = Missing Value Source: NWS Daily Summary

Daily Weather History Graph

Daily Weather History Graph

Search for Another Location

Airport or City:

Astronomy

Sep. 06, 2019 Rise Set
Actual Time 6:50 AM CDT 7:30 PM CDT
Civil Twilight 6:26 AM CDT 7:54 PM CDT
Nautical Twilight 5:57 AM CDT 8:23 PM CDT
Astronomical Twilight 5:27 AM CDT 8:53 PM CDT
Moon 2:32 PM CDT (9/6) 12:13 AM CDT (9/6)
Length of Visible Light 13h 28m
Length of Day
12h 39m
First Quarter, 56% of the Moon is Illuminated
Sep 6
First Quarter
Sep 13
Full
Sep 21
Last Quarter
Sep 28
New
Oct 5
First Quarter

Hourly Weather History & Observations

Time (CDT) Temp. Heat Index Dew Point Humidity Pressure Visibility Wind Dir Wind Speed Gust Speed Precip Events Conditions
12:15 AM 72.7 °F - 70.0 °F 91% 30.01 in 10.0 mi Calm Calm - N/A   Clear
12:35 AM 72.5 °F - 69.8 °F 91% 30.01 in 10.0 mi Calm Calm - N/A   Clear
12:55 AM 72.3 °F - 69.6 °F 91% 30.01 in 10.0 mi Calm Calm - N/A   Clear
1:15 AM 72.1 °F - 69.8 °F 92% 30.01 in 10.0 mi Calm Calm - N/A   Clear
1:35 AM 71.8 °F - 69.3 °F 92% 30.01 in 10.0 mi Calm Calm - N/A   Clear
1:55 AM 71.8 °F - 68.7 °F 90% 30.01 in 10.0 mi Calm Calm - N/A   Clear
2:15 AM 70.9 °F - 68.4 °F 92% 30.01 in 7.0 mi Calm Calm - N/A   Clear
2:35 AM 70.9 °F - 68.7 °F 93% 30.01 in 7.0 mi Calm Calm - N/A   Clear
2:55 AM 71.2 °F - 68.4 °F 91% 30.01 in 7.0 mi Calm Calm - N/A   Clear
3:15 AM 70.9 °F - 68.4 °F 92% 30.01 in 7.0 mi Calm Calm - N/A   Clear
3:35 AM 70.0 °F - 68.2 °F 94% 30.01 in 7.0 mi Calm Calm - N/A   Clear
3:55 AM 72.5 °F - 70.0 °F 92% 30.02 in 10.0 mi Calm Calm - N/A   Clear
4:15 AM 72.3 °F - 69.8 °F 92% 30.02 in 7.0 mi Calm Calm - N/A   Clear
4:35 AM 70.7 °F - 68.9 °F 94% 30.02 in 7.0 mi Calm Calm - N/A   Clear
4:55 AM 70.7 °F - 68.9 °F 94% 30.02 in 5.0 mi Calm Calm - N/A   Clear
5:15 AM 69.8 °F - 68.5 °F 96% 30.02 in 4.0 mi Calm Calm - N/A   Clear
5:35 AM 70.0 °F - 69.1 °F 97% 30.02 in 5.0 mi WSW 5.8 mph - N/A   Clear
5:55 AM 71.2 °F - 68.9 °F 92% 30.03 in 5.0 mi West 3.5 mph - N/A   Clear
6:15 AM 70.7 °F - 68.7 °F 93% 30.03 in 5.0 mi Calm Calm - N/A   Clear
6:35 AM 70.9 °F - 68.9 °F 93% 30.04 in 7.0 mi Calm Calm - N/A   Clear
6:55 AM 70.5 °F - 68.4 °F 93% 30.04 in 5.0 mi Calm Calm - N/A   Clear
7:15 AM 70.9 °F - 68.9 °F 93% 30.05 in 5.0 mi Calm Calm - N/A   Clear
7:35 AM 71.8 °F - 69.8 °F 93% 30.05 in 5.0 mi Calm Calm - N/A   Clear
7:55 AM 74.7 °F - 71.4 °F 90% 30.06 in 5.0 mi Calm Calm - N/A   Clear
8:15 AM 78.3 °F - 70.5 °F 77% 30.06 in 7.0 mi Calm Calm - N/A   Clear
8:35 AM 80.8 °F 84.7 °F 71.2 °F 73% 30.07 in 10.0 mi Calm Calm - N/A   Clear
8:55 AM 85.3 °F 91.1 °F 71.8 °F 64% 30.07 in 10.0 mi Calm Calm - N/A   Clear
9:15 AM 87.8 °F 92.6 °F 70.0 °F 55% 30.07 in 10.0 mi NW 3.5 mph - N/A   Clear
9:35 AM 89.1 °F 95.0 °F 71.2 °F 55% 30.07 in 10.0 mi North 3.5 mph - N/A   Clear
9:55 AM 89.4 °F 95.3 °F 70.7 °F 54% 30.08 in 10.0 mi Calm Calm - N/A   Clear
10:15 AM 91.0 °F 97.1 °F 70.5 °F 51% 30.07 in 10.0 mi NNW 3.5 mph - N/A   Clear
10:35 AM 91.9 °F 97.9 °F 70.5 °F 49% 30.07 in 10.0 mi NNW 3.5 mph - N/A   Clear
10:55 AM 93.6 °F 100.1 °F 70.3 °F 47% 30.07 in 10.0 mi NNW 3.5 mph - N/A   Clear
11:15 AM 94.3 °F 100.4 °F 70.0 °F 45% 30.07 in 10.0 mi North 3.5 mph - N/A   Clear
11:35 AM 96.1 °F 102.3 °F 69.4 °F 42% 30.07 in 10.0 mi Calm Calm - N/A   Clear
11:55 AM 97.9 °F 104.7 °F 69.8 °F 40% 30.06 in 10.0 mi Calm Calm - N/A   Clear
12:15 PM 97.7 °F 103.6 °F 69.3 °F 39% 30.06 in 10.0 mi Calm Calm - N/A   Clear
12:35 PM 97.9 °F 104.0 °F 69.3 °F 39% 30.05 in 10.0 mi Calm Calm - N/A   Clear
12:55 PM 98.2 °F 105.4 °F 70.0 °F 40% 30.05 in 10.0 mi Calm Calm - N/A   Clear
1:15 PM 99.0 °F 104.8 °F 68.5 °F 37% 30.04 in 10.0 mi Calm Calm - N/A   Clear
1:35 PM 98.8 °F 104.5 °F 68.2 °F 37% 30.03 in 10.0 mi West 3.5 mph - N/A   Clear
1:55 PM 101.7 °F 108.9 °F 69.3 °F 35% 30.02 in 10.0 mi NNW 3.5 mph - N/A   Clear
2:15 PM 100.4 °F 107.0 °F 68.7 °F 36% 30.02 in 10.0 mi NW 3.5 mph - N/A   Clear
2:35 PM 100.6 °F 106.0 °F 67.6 °F 34% 30.01 in 10.0 mi Calm Calm - N/A   Clear
2:55 PM 100.9 °F 107.4 °F 68.5 °F 35% 30.00 in 10.0 mi Calm Calm - N/A   Clear
3:15 PM 102.7 °F 109.5 °F 68.9 °F 33% 29.99 in 10.0 mi SSE 3.5 mph - N/A   Clear
3:35 PM 99.1 °F 104.5 °F 67.8 °F 36% 29.98 in 10.0 mi NNE 3.5 mph - N/A   Clear
3:55 PM 98.6 °F 104.1 °F 68.4 °F 37% 29.97 in 10.0 mi Calm Calm - N/A   Scattered Clouds
4:15 PM 96.6 °F 101.5 °F 68.0 °F 39% 29.97 in 10.0 mi ENE 5.8 mph - N/A   Scattered Clouds
4:35 PM 100.8 °F 107.0 °F 68.2 °F 35% 29.97 in 10.0 mi Calm Calm - N/A   Scattered Clouds
4:55 PM 100.2 °F 106.0 °F 67.6 °F 35% 29.96 in 10.0 mi NE 3.5 mph - N/A   Clear
5:15 PM 99.5 °F 105.2 °F 67.8 °F 36% 29.96 in 10.0 mi NE 5.8 mph - N/A   Clear
5:35 PM 98.8 °F 105.1 °F 68.9 °F 38% 29.96 in 10.0 mi NE 8.1 mph - N/A   Clear
5:55 PM 97.9 °F 102.7 °F 67.6 °F 37% 29.96 in 10.0 mi NE 5.8 mph - N/A   Clear
6:15 PM 97.2 °F 101.9 °F 68.0 °F 38% 29.96 in 10.0 mi ENE 6.9 mph - N/A   Clear
6:35 PM 95.9 °F 100.1 °F 67.5 °F 39% 29.96 in 10.0 mi North 5.8 mph - N/A   Clear
6:55 PM 93.6 °F 97.9 °F 68.2 °F 43% 29.96 in 10.0 mi NNW 3.5 mph - N/A   Clear
7:15 PM 88.9 °F 95.6 °F 71.8 °F 57% 29.96 in 10.0 mi NNW 3.5 mph - N/A   Clear
7:35 PM 85.6 °F 90.4 °F 70.3 °F 60% 29.97 in 10.0 mi WNW 3.5 mph - N/A   Clear
7:55 PM 82.4 °F 86.7 °F 71.1 °F 68% 29.97 in 10.0 mi West 3.5 mph - N/A   Clear
8:15 PM 80.2 °F 84.2 °F 72.1 °F 76% 29.98 in 10.0 mi Calm Calm - N/A   Clear
8:35 PM 79.9 °F - 71.1 °F 74% 29.98 in 10.0 mi Calm Calm - N/A   Clear
8:55 PM 79.9 °F - 70.9 °F 74% 29.98 in 10.0 mi West 3.5 mph - N/A   Clear
9:15 PM 80.2 °F 83.5 °F 70.0 °F 71% 29.98 in 10.0 mi Calm Calm - N/A   Clear
9:35 PM 81.5 °F 85.5 °F 70.7 °F 70% 29.98 in 10.0 mi Calm Calm - N/A   Clear
9:55 PM 81.0 °F 84.7 °F 70.9 °F 71% 29.99 in 10.0 mi Calm Calm - N/A   Clear
10:15 PM 79.0 °F - 70.9 °F 76% 29.99 in 10.0 mi South 3.5 mph - N/A   Clear
10:35 PM 77.9 °F - 70.7 °F 78% 29.99 in 10.0 mi Calm Calm - N/A   Clear
10:55 PM 76.1 °F - 70.9 °F 84% 29.99 in 10.0 mi Calm Calm - N/A   Clear
11:15 PM 75.4 °F - 71.6 °F 88% 30.00 in 10.0 mi Calm Calm - N/A   Clear
11:35 PM 74.8 °F - 71.2 °F 88% 29.99 in 10.0 mi Calm Calm - N/A   Clear
11:55 PM 74.5 °F - 71.4 °F 90% 29.99 in 10.0 mi Calm Calm - N/A   Clear